{"data":{"norad_id":68677,"intl_designator":"2026-077R","name":"STARLINK-36168","alt_names":[],"object_type":"PAYLOAD","status":"ACTIVE","operator":null,"country":"US","launch_date":"2026-04-11","launch_site_code":"AFWTR","launch_vehicle":null,"mission":null,"orbit_class":"UNKNOWN","rcs_meters":null,"size_class":null,"mass_kg":null,"dimensions":null,"purposes":["comms"],"wikipedia_slug":null,"has_3d_model":false,"image_url":null,"decayed_at":null,"tle_current":{"epoch":"2026-05-25T02:57:41.747040Z","epoch_age_seconds":54570,"freshness":"FRESH","line1":"1 68677U 26077R   26145.12339985  .00013730  00000+0  42666-3 0  9994","line2":"2 68677  97.2856  16.7267 0001223  99.2616 260.8765 15.33457701  6874","mean_motion":15.33457701,"eccentricity":0.0001223,"inclination_deg":97.2856,"raan_deg":16.7267,"arg_perigee_deg":99.2616,"mean_anomaly_deg":260.8765,"bstar":0.00042666,"rev_number":687,"period_min":93.90542687033,"perigee_km":464.66840803513,"apogee_km":466.34236296262,"semimajor_km":6843.6423854989,"source":"CELESTRAK","updated_at":"2026-05-25T13:38:21.994793Z"}}}